This is the latest recevied weather packets stored in our database for station/object W5CRT. If no packets are shown the sender has not sent any weather packets the latest 1 day(s).
| Time | Temp. | Humidity | Pressure | Rain* | Wind** | Luminosity | Snow |
|---|---|---|---|---|---|---|---|
| 1778049528 | 14.44° C | 74% | 1007.9 hPa | 0 mm | - | 0 W/m² | - |
| 1778048621 | 15° C | 75% | 1007.7 hPa | 0 mm | - | 0 W/m² | - |
| 1778047712 | 15.56° C | 75% | 1007.8 hPa | 0 mm | - | 0 W/m² | - |
| 1778047106 | 15.56° C | 75% | 1007.4 hPa | 0 mm | - | 0 W/m² | - |
| 1778046803 | 15.56° C | 74% | 1007.6 hPa | 0 mm | - | 0 W/m² | - |
| 1778046500 | 15.56° C | 76% | 1007.5 hPa | 0 mm | - | 0 W/m² | - |
| 1778045893 | 15.56° C | 76% | 1007.5 hPa | 0 mm | - | 0 W/m² | - |
| 1778044988 | 16.11° C | 76% | 1007.5 hPa | 0 mm | - | 0 W/m² | - |
| 1778044685 | 16.11° C | 76% | 1007.4 hPa | 0 mm | - | 0 W/m² | - |
| 1778044381 | 16.11° C | 76% | 1007.5 hPa | 0 mm | - | 0 W/m² | - |
| 1778044079 | 16.11° C | 77% | 1007.3 hPa | 0 mm | - | 0 W/m² | - |
| 1778043776 | 16.67° C | 77% | 1007.3 hPa | 0 mm | - | 0 W/m² | - |
| 1778043472 | 16.67° C | 76% | 1007.5 hPa | 0 mm | - | 0 W/m² | - |
| 1778042867 | 17.22° C | 77% | 1007.5 hPa | 0 mm | - | 0 W/m² | - |
| 1778042261 | 17.22° C | 77% | 1007.2 hPa | 0 mm | - | 0 W/m² | - |
| 1778041657 | 17.78° C | 77% | 1007.2 hPa | 0 mm | - | 0 W/m² | - |
| 1778040750 | 18.33° C | 77% | 1006.8 hPa | 0 mm | - | 0 W/m² | - |
| 1778040448 | 18.33° C | 76% | 1007 hPa | 0 mm | - | 0 W/m² | - |
| 1778040145 | 18.33° C | 76% | 1006.9 hPa | 0 mm | - | 0 W/m² | - |
| 1778039235 | 18.89° C | 75% | 1006.6 hPa | 0 mm | - | 0 W/m² | - |
| 1778038630 | 19.44° C | 75% | 1006.8 hPa | 0 mm | - | 0 W/m² | - |
| 1778038023 | 20° C | 75% | 1006.5 hPa | 0 mm | - | 0 W/m² | - |
| 1778037417 | 20.56° C | 75% | 1006.1 hPa | 0 mm | - | 0 W/m² | - |
| 1778037114 | 20.56° C | 74% | 1006 hPa | 0 mm | - | 0 W/m² | - |
| 1778036813 | 20.56° C | 74% | 1006.1 hPa | 0 mm | - | 0 W/m² | - |
* Rain latest hour (hover to see other rain measurements)
** Current wind speed in m/s (hover to see current wind gust speed)